Location: �terpigny
(49.8910°N, 2.9249°E)
Time: 11:20:49
(UTC+00:00)

RS-44 - Pass Details

Date: 30 June 2022
Orbit: 1175 x 1510 km, 82.5° (Epoch: 09 August)

Event Time Altitude Azimuth Distance (km) Brightness Sun altitude
Rises 21:01:47 0° 204° (SSW) 4,341 ? -7.8°
Reaches altitude 10° 21:04:32 10° 208° (SSW) 3,417 ? -8.1°
Maximum altitude 21:12:37 59° 287° (WNW) 1,623 ? -8.9°
Drops below altitude 10° 21:21:18 10° 6° (N) 3,645 ? -9.7°
Sets 21:24:21 0° 11° (N) 4,649 ? -10.0°
